Location: ActonStarParty
(42.4766°N, 71.4538°W)
Time: 20:14:37
(UTC-04:00)

Daily predictions for brighter satellites

Satellite Brightness Start Highest point End
(mag) Time Altitude Azimuth Time Altitude Azimuth Time Altitude Azimuth
Cosmos 1862 4.3 20:36:40 10° SSE 20:40:12 29° E 20:43:45 10° NNE
H-2A R/B 2.9 20:36:35 10° SE 20:40:27 34° ENE 20:44:15 10° N
Cosmos 1624 Rocket 4.3 20:35:15 10° SSW 20:40:31 75° WNW 20:45:52 10° NNE
Cosmos 1606 3.2 20:41:23 10° N 20:45:09 42° ENE 20:48:53 10° SSE
COSMOS 2487 3.6 20:42:45 10° N 20:46:00 30° ENE 20:49:12 10° SE
Meteor 1-27 Rocket 3.9 20:43:20 10° N 20:48:49 56° ENE 20:54:12 10° SSE
ERS-1 Rocket 3.0 20:44:51 10° SSE 20:49:52 72° ENE 20:54:54 10° N
ALOS 3.5 20:45:48 10° S 20:50:16 44° W 20:54:45 10° NNW
Cosmos 1892 3.8 20:47:47 10° SSW 20:51:30 50° W 20:55:18 10° N
Cosmos 407 Rocket 3.6 20:46:30 10° NNW 20:51:49 90° ENE 20:57:09 10° SSE
SL-8 R/B 4.5 20:49:16 10° W 20:54:01 56° NNW 20:58:45 10° ENE
SJ-11-01 4.3 20:50:06 10° SSE 20:54:51 82° ENE 20:59:37 10° NNW
Cosmos 1140 Rocket 4.2 20:50:11 10° N 20:54:58 37° ENE 20:59:34 11° SE
Okean 3 4.0 20:56:40 10° N 21:00:44 40° ENE 21:04:35 11° SSE
Cosmos 1782 3.3 21:00:24 10° NNW 21:04:24 63° W 21:08:23 10° S
Cosmos 1452 Rocket 3.5 20:59:29 10° S 21:04:43 71° ESE 21:09:59 10° NNE
H-2A R/B 4.0 21:02:24 10° E 21:05:14 15° ENE 21:08:02 10° NNE
Cosmos 1674 Rocket 4.1 21:02:03 10° NNW 21:06:27 63° W 21:10:49 10° S
ARGOS 4.3 21:05:00 12° ESE 21:09:04 28° ENE 21:13:35 10° N
ATLAS 5 CENTAUR R/B 3.8 21:03:50 10° NW 21:09:13 34° WSW 21:14:54 10° S
USA 186 4.4 21:09:20 10° SW 21:11:46 20° W 21:14:17 10° NW
Okean 2 Rocket 3.6 21:08:18 10° SSE 21:12:25 39° E 21:16:32 10° NNE
CENTAUR R/B 4.5 21:09:05 10° NW 21:15:59 33° WSW 21:23:09 10° S
Nadezhda 3 Rocket 4.1 21:11:23 10° N 21:17:47 85° E 21:24:10 10° S
OAO 3 Rocket 4.5 21:14:27 10° SSW 21:18:14 22° SSE 21:20:23 17° SE
SPOT 1/Viking Rocket 4.3 21:16:28 15° SE 21:20:19 39° ENE 21:25:08 10° N
Terra 3.8 21:17:57 10° E 21:20:27 14° ENE 21:22:57 10° NNE
Cosmos 1939 Rocket 3.1 21:17:21 10° S 21:21:13 68° W 21:25:09 10° NNW
Cosmos 1242 Rocket 3.1 21:18:02 10° N 21:21:33 43° ENE 21:23:49 19° SE
Cosmos 1782 Rocket 3.6 21:18:46 10° S 21:23:10 64° E 21:27:37 10° NNE
Cosmos 1184 Rocket 2.7 21:20:04 10° S 21:23:22 67° E 21:26:42 10° NNE
YAOGAN 6 3.1 21:21:32 19° SE 21:23:38 42° ENE 21:26:59 10° N
Sich 1 Rocket 4.3 21:19:34 10° SSW 21:24:05 58° W 21:28:37 10° N
ISS -3.2 21:21:28 10° WSW 21:24:43 79° NW 21:27:59 10° NE
Cosmos 1238 Rocket 2.5 21:21:26 10° N 21:24:45 85° E 21:28:10 13° S
Cosmos 1408 2.5 21:22:02 10° S 21:25:42 88° E 21:29:21 10° N
SPOT 5 3.1 21:25:17 12° SSE 21:30:08 83° ENE 21:35:32 10° NNW
DNEPR-1 R/B 3.9 21:26:21 10° NNW 21:31:49 75° NE 21:34:51 22° SE
Cosmos 1833 Rocket 3.6 21:27:06 10° N 21:32:16 36° ENE 21:35:46 18° ESE
MetOp-A 4.1 21:31:45 15° SSE 21:36:13 80° ENE 21:41:36 10° NNW
Cosmos 1825 2.5 21:32:34 10° SSW 21:36:21 66° W 21:40:10 10° N
Cosmos 1850 Rocket 4.1 21:31:04 10° NNW 21:36:23 65° ENE 21:39:55 21° SE
Cosmos 2278 Rocket 2.3 21:30:51 10° SSW 21:36:32 83° WNW 21:42:15 10° NNE
Cosmos 1844 Rocket 4.1 21:31:51 10° SW 21:37:11 42° WNW 21:42:32 10° NNE
Cosmos 1975 Rocket 3.0 21:33:11 10° N 21:37:32 88° E 21:40:50 17° S
Cosmos 2084 4.2 21:35:46 10° SW 21:39:31 49° NW 21:43:15 10° NNE
USA 229 DEB 4.1 21:34:08 10° NNW 21:41:08 56° NE 21:46:06 20° ESE
USA 229 4.1 21:34:14 10° NNW 21:41:13 55° NE 21:46:12 20° ESE
Cosmos 2341 Rocket 4.2 21:39:11 10° SSW 21:45:29 77° W 21:51:46 10° N
COS B Rocket 4.3 21:44:18 10° NNW 21:48:07 43° W 21:51:34 10° SSW
Intercosmos 25 2.8 21:47:58 20° S 21:50:16 81° E 21:53:26 10° N
Cosmos 1536 Rocket 4.3 21:46:10 10° N 21:50:23 38° ENE 21:52:00 28° ESE
SL-8 Rocket 3.9 21:49:49 11° S 21:55:52 78° E 22:02:07 10° N
Cosmos 2082 Rocket 2.3 21:50:13 10° NNW 21:55:55 67° ENE 21:58:58 28° SE
Cosmos 1741 Rocket 4.0 21:52:06 10° NNW 21:57:21 86° WSW 22:00:22 26° SSE
Meteor 1-14 Rocket 4.1 21:53:53 15° S 21:58:42 74° E 22:04:17 10° NNE
Timation 2 Rocket 4.0 21:54:30 10° NNW 22:00:28 72° WSW 22:04:13 24° SSE
Cosmos 1812 3.7 22:00:12 10° NNE 22:03:41 31° ENE 22:04:10 30° E
USA 245 3.2 22:05:04 37° S 22:06:19 73° W 22:10:29 10° NNW
GPS 2-05 Rocket1 4.3 22:05:01 10° WSW 22:07:26 25° SSW 22:07:26 25° SSW
Cosmos 1110 Rocket 4.3 22:10:42 34° SSE 22:12:23 45° ESE 22:17:20 10° NNE
Cosmos 2297 3.8 22:07:07 10° SSW 22:12:49 83° WNW 22:18:35 10° NNE
H-2A R/B 4.2 22:13:13 10° SW 22:16:31 21° W 22:19:47 10° NW
Cosmos 2151 Rocket 3.6 22:16:23 30° S 22:18:37 89° WNW 22:23:10 10° N
IGS 5A 4.1 22:17:59 37° E 22:18:39 40° ENE 22:22:34 10° N
NOAA 11 4.3 22:15:50 28° S 22:18:52 76° WSW 22:24:24 10° NNW
CZ-4 R/B 3.6 22:16:35 10° NNE 22:21:16 85° ESE 22:23:30 31° SSW
CZ-3C R/B 4.2 22:13:58 10° SW 22:21:45 15° SSW 22:23:56 13° S
Cosmos 614 Rocket 4.5 22:19:31 10° NNW 22:24:27 53° WSW 22:26:48 29° SSW
Cosmos 864 Rocket 4.4 22:21:57 23° S 22:25:58 90° E 22:32:11 10° N
BREEZE-M DEB (TANK) 3.9 22:31:49 10° NW 22:33:45 23° N 22:37:08 10° ENE
Cosmos 1300 Rocket 3.7 22:33:36 53° ESE 22:33:56 55° E 22:38:18 10° NNE
Gbstr 26 Del rocket 3.7 22:29:29 10° NW 22:34:28 52° NNE 22:35:56 35° E
Cosmos 2366 rocket 4.2 22:32:20 19° SSW 22:36:56 72° W 22:43:18 10° N
Cosmos 1486 Rocket 4.4 22:33:14 10° N 22:38:27 52° ENE 22:39:43 42° ESE
Okean 1 Rocket 3.2 22:38:38 53° ESE 22:38:48 53° E 22:43:10 10° NNE
USA 234 3.4 22:33:41 10° ENE 22:39:59 48° SE 22:43:02 29° S
CZ-4C R/B 3.4 22:41:21 61° SSW 22:41:51 69° W 22:45:59 10° NNW
Landsat 7 3.9 22:40:33 46° S 22:41:54 70° WSW 22:46:40 10° NNW
H-2A R/B 2.1 22:42:14 45° S 22:43:58 83° WSW 22:49:17 10° NNW
Cosmos 2369 Rocket 3.5 22:45:05 24° E 22:45:05 24° E 22:48:35 10° NE
ARGOS 4.1 22:46:31 24° SSW 22:49:08 39° W 22:54:09 10° NNW
Timation 1 Rocket 4.3 22:46:57 21° SSW 22:51:07 84° WNW 22:57:10 10° NNE
Okean 1-7 Rocket 3.5 22:46:42 10° N 22:51:12 69° E 22:51:24 68° ESE
Cosmos 1400 Rocket 4.1 22:54:44 31° ENE 22:54:44 31° ENE 22:57:30 10° NNE
Cosmos 1536 4.3 22:56:52 25° ENE 22:56:52 25° ENE 22:59:11 10° NNE
Terra 1.9 22:56:47 57° SSW 22:57:37 70° WSW 23:02:23 10° NNW
ISS -0.6 22:58:59 10° WNW 23:01:32 21° NNW 23:04:06 10° NE
Cosmos 1302 Rocket 3.9 23:06:46 68° SSE 23:07:15 74° ESE 23:12:33 10° NNE
Cosmos 1000 Rocket 4.4 23:05:20 10° N 23:11:37 86° E 23:13:07 55° SSE
Spot 4 3.9 23:11:31 62° SW 23:12:02 67° WSW 23:16:53 10° NNW
CARTOSAT-1 4.4 23:15:44 39° WSW 23:16:00 39° W 23:20:04 10° NNW
Cosmos 1833 Rocket 3.7 23:11:07 10° NW 23:16:08 34° WSW 23:17:28 30° SW
Cosmos 1943 Rocket 4.0 23:18:11 16° ENE 23:18:11 16° ENE 23:20:17 10° ENE
Cosmos 2239 Rocket 4.4 23:16:19 56° SSE 23:17:43 79° E 23:24:02 10° N
Okean 1 4.4 23:14:48 10° NNW 23:18:34 37° W 23:18:36 37° W
Spot 2 4.1 23:15:25 10° N 23:19:31 72° NW 23:19:31 72° NW
Lacrosse 5 1.7 23:25:04 83° E 23:25:04 83° E 23:30:03 10° NE
Iridium 4 Rocket 3.7 23:28:28 10° N 23:34:24 87° W 23:35:10 70° S
ASTEX 1 4.2 23:32:35 10° N 23:37:18 44° WNW 23:38:12 40° WSW
Cosmos 2082 Rocket 4.1 23:35:44 10° WNW 23:39:21 18° W 23:40:49 16° WSW
Cosmos 1892 Rocket 4.0 23:38:01 10° N 23:41:36 58° N 23:41:36 58° N
Cosmos 2084 Rocket 4.4 23:40:33 10° NNW 23:43:25 41° N 23:43:25 41° N
Cosmos 1503 Rocket 3.9 23:41:18 10° NNW 23:46:27 79° W 23:46:27 79° W
Meteor 2-4 Rocket 3.5 23:42:26 10° NNW 23:47:54 81° W 23:48:06 79° SW
NOSS 3-1 (A) 4.0 23:43:01 10° NW 23:50:38 82° WSW 23:52:37 56° SSE
Genesis I 4.5 23:52:50 40° NNW 23:52:50 40° NNW 23:56:12 10° NNE
Cosmos 2263 4.3 23:53:34 62° E 23:53:34 62° E 23:58:39 10° NNE
Cosmos 1821 Rocket 4.3 23:52:03 47° SW 23:53:32 60° W 23:59:42 10° N
CZ-4B R/B 4.0 23:57:11 17° NNE 23:57:11 17° NNE 23:58:07 10° N
